Location: Degersen
(52.2871°N, 9.5716°E)
Time: 21:09:56
(UTC+00:00)

Cosmos 724 - Pass Details

Date: 20 January 2026
Orbit: 855 x 938 km, 65.6° (Epoch: 16 February)

Event Time Altitude Azimuth Distance (km) Brightness Sun altitude
Exits shadow 06:13:53 - 319° (NW) 2,759 6.3 -9.7°
Reaches altitude 10° 06:14:19 10° 319° (NW) 2,595 6.2 -9.7°
Maximum altitude 06:20:22 81° 47° (NE) 906 4.4 -8.8°
Drops below altitude 10° 06:26:14 10° 136° (SE) 2,524 7.9 -8.0°
Sets 06:28:41 0° 137° (SE) 3,448 8.8 -7.6°
